Location: Hastringsfeld
(50.9620°N, 10.4787°E)
Time: 04:32:49
(UTC+00:00)

ATLAS 3B R/B - Pass Details

Date: 29 April 2024
Orbit: 943 x 1251 km, 63.8° (Epoch: 17 May)

Event Time Altitude Azimuth Distance (km) Brightness Sun altitude
Rises 20:51:56 0° 291° (WNW) 4,057 6.7 -17.1°
Reaches altitude 10° 20:55:01 10° 302° (WNW) 3,135 6.2 -17.4°
Maximum altitude 21:01:40 32° 3° (N) 2,004 4.6 -18.0°
Drops below altitude 10° 21:08:31 10° 64° (ENE) 3,233 5.1 -18.6°
Sets 21:11:45 0° 74° (ENE) 4,201 5.6 -18.9°
